FW9019 Weather Reports


Display with metric or nautical units.
time (UTC)temp
F
wind
direction
speed
MPH
gust
MPH
rain 1hr
in
rain 24hr
in
rain mn
in
humidity
%
barometer
mb
20260504173032 70 68 2.0 3.0 0.00 0.00 0.00 48 1005.7
20260504172134 70 39 2.0 6.0 0.00 0.00 0.00 48 1005.5
20260504171055 71 62 2.0 6.0 0.00 0.00 0.00 47 1005.2
20260504170105 69 64 2.0 5.0 0.00 0.00 0.00 50 1005.6
20260504151032 70 142 1.0 2.0 0.00 0.00 0.00 48 1006.6
20260504141106 63 68 2.0 3.0 0.00 0.00 0.00 59 1007.2
20260504120115 51 0.0 0.0 0.00 0.00 0.00 72 1007.2
20260504090108 47 0.0 0.0 0.00 0.00 0.00 72 1007.9
20260504081028 45 0.0 0.0 0.00 0.00 0.00 75 1008.1
20260504080110 45 0.0 0.0 0.00 0.00 0.00 74 1008.1
20260504060109 51 0.0 0.0 0.00 0.00 0.00 62 1009.2
20260504045031 53 0.0 0.0 0.00 0.00 0.00 58 1009.7
20260504044114 54 43 0.0 1.0 0.00 0.00 0.00 57 1009.8
20260504043054 54 43 0.0 2.0 0.00 0.00 0.00 56 1009.9
20260504042034 54 43 1.0 2.0 0.00 0.00 0.00 56 1009.8
20260504041116 54 64 1.0 3.0 0.00 0.00 0.00 55 1009.8
20260504040055 54 85 0.0 1.0 0.00 0.00 0.00 56 1010.0
20260504035035 54 85 1.0 2.0 0.00 0.00 0.00 56 1010.0
20260504034118 54 85 1.0 3.0 0.00 0.00 0.00 56 1010.2
20260504033059 54 85 0.0 1.0 0.00 0.00 0.00 56 1010.2
20260504032058 54 85 1.0 2.0 0.00 0.00 0.00 57 1010.2
20260504031109 54 85 1.0 2.0 0.00 0.00 0.00 56 1010.2
20260504030028 54 85 0.0 2.0 0.00 0.00 0.00 55 1010.4
20260504025130 54 85 0.0 2.0 0.00 0.00 0.00 55 1010.4
20260504024051 54 85 0.0 3.0 0.00 0.00 0.00 55 1010.5
20260504023030 54 0.0 0.0 0.00 0.00 0.00 55 1010.3
20260504022112 55 85 0.0 1.0 0.00 0.00 0.00 54 1010.2
20260504021052 55 85 0.0 1.0 0.00 0.00 0.00 54 1010.3
20260504020032 55 85 1.0 2.0 0.00 0.00 0.00 53 1010.3
20260504015114 55 85 0.0 1.0 0.00 0.00 0.00 53 1010.2
20260504014054 55 85 1.0 2.0 0.00 0.00 0.00 52 1010.4
20260504013036 56 85 1.0 2.0 0.00 0.00 0.00 52 1010.3
20260504012136 56 85 0.0 1.0 0.00 0.00 0.00 51 1010.3
20260504011056 56 85 1.0 2.0 0.00 0.00 0.00 51 1010.3
20260504010036 56 85 0.0 1.0 0.00 0.00 0.00 51 1010.3
20260504005138 57 85 0.0 2.0 0.00 0.00 0.00 50 1010.3
20260504004058 57 85 0.0 1.0 0.00 0.00 0.00 49 1010.5
20260504003039 57 85 1.0 3.0 0.00 0.00 0.00 49 1010.5
20260504002018 57 85 1.0 5.0 0.00 0.00 0.00 48 1010.4
20260504001100 57 94 1.0 2.0 0.00 0.00 0.00 47 1010.4
20260504000040 57 97 1.0 3.0 0.00 0.00 0.00 46 1010.5
20260503235021 58 121 1.0 5.0 0.00 0.00 0.00 46 1010.6
20260503234102 58 120 1.0 3.0 0.00 0.00 0.00 45 1010.6
20260503233042 58 85 1.0 2.0 0.00 0.00 0.00 45 1010.7
20260503232022 58 88 1.0 3.0 0.00 0.00 0.00 45 1010.9
20260503231104 58 88 1.0 2.0 0.00 0.00 0.00 45 1011.1
20260503230044 58 77 1.0 5.0 0.00 0.00 0.00 44 1011.1
20260503225044 58 18 2.0 7.0 0.00 0.00 0.00 43 1011.0
20260503224106 59 77 1.0 2.0 0.00 0.00 0.00 43 1011.1
20260503223046 59 72 2.0 5.0 0.00 0.00 0.00 42 1011.1
20260503222026 59 26 2.0 3.0 0.00 0.00 0.00 42 1010.9
20260503221108 59 76 2.0 6.0 0.00 0.00 0.00 42 1011.0
20260503220048 60 50 2.0 3.0 0.00 0.00 0.00 41 1011.0
20260503215028 60 183 1.0 2.0 0.00 0.00 0.00 41 1011.3
20260503214110 60 95 2.0 3.0 0.00 0.00 0.00 40 1011.3
20260503213110 60 66 2.0 6.0 0.00 0.00 0.00 39 1011.2
20260503212030 59 70 2.0 5.0 0.00 0.00 0.00 40 1011.6
20260503211112 59 114 2.0 3.0 0.00 0.00 0.00 40 1011.9
20260503210052 59 64 2.0 5.0 0.00 0.00 0.00 40 1012.0
20260503205032 59 78 2.0 5.0 0.00 0.00 0.00 40 1012.3
20260503204114 59 77 2.0 3.0 0.00 0.00 0.00 40 1012.6
20260503203054 61 76 2.0 3.0 0.00 0.00 0.00 38 1012.7
20260503202034 62 85 2.0 5.0 0.00 0.00 0.00 37 1013.1
20260503201137 61 97 2.0 5.0 0.00 0.00 0.00 38 1013.1
20260503200116 59 78 2.0 7.0 0.00 0.00 0.00 40 1013.4
20260503195036 59 48 2.0 5.0 0.00 0.00 0.00 41 1013.8
20260503194138 58 103 2.0 3.0 0.00 0.00 0.00 41 1014.3
20260503193058 58 92 1.0 3.0 0.00 0.00 0.00 40 1014.9
20260503192038 59 112 1.0 3.0 0.00 0.00 0.00 39 1014.7
20260503191019 58 80 1.0 3.0 0.00 0.00 0.00 39 1014.5
20260503190101 59 83 2.0 3.0 0.00 0.00 0.00 38 1014.6
20260503185040 59 47 2.0 5.0 0.00 0.00 0.00 38 1014.3
20260503184021 60 23 2.0 6.0 0.00 0.00 0.00 37 1014.6
20260503183102 59 82 2.0 5.0 0.00 0.00 0.00 39 1014.9
20260503182042 57 39 2.0 5.0 0.00 0.00 0.00 40 1015.3
20260503181042 56 80 2.0 6.0 0.00 0.00 0.00 41 1015.8
20260503180104 56 117 2.0 5.0 0.00 0.00 0.00 40 1015.8
20260503175047 57 168 2.0 5.0 0.00 0.00 0.00 39 1016.0
20260503174055 57 93 2.0 5.0 0.00 0.00 0.00 38 1016.1